Tracking 30107 objects as of 25-Jan-2025
HD Live streaming from Space Station
objects crossing your sky now

RSW-02

Track RSW-02 now!
10-day predictions


NORAD ID: 49114
Int'l Code: 2021-076C
Perigee: 1,090.5 km
Apogee: 1,121.3 km
Inclination: 86.4 °
Period: 107.2 minutes
Semi major axis: 7476 km
RCS: Unknown
Launch date: August 24, 2021
Source: People's Republic of China (PRC)
Launch site: Jiuquan Satellite Launch Center, China (JSC)
Your satellite tracking list
Your tracking list is empty




NASA's NSSDC Master Catalog

Two Line Element Set (TLE):
1 49114U 21076C   25025.54391681  .00000093  00000-0  13663-3 0  9990
2 49114  86.4116 339.2155 0020599  45.5464 314.7361 13.42832259167758
Source of the keplerian elements: AFSPC